Find Kosmos-2602

NORAD ID: 67676 Int'l Des: 2026-023 Owner: VVKOV Country: RU operational
LEOCIRCULARRETROGRADE

現在のビュー

3D地球を読み込み中...

Kosmos-2602について

説明を読み込み中...

次回通過

Passes for default location (London). Set your location on the main map for personalized predictions.

高度履歴

Loading altitude history...

軌道要素

1 67676U 26023C 26146.13479332 .00013475 00000-0 54573-3 0 9993
2 67676 96.6305 210.2204 0017883 201.2349 158.8150 15.24620304 16813
Epoch: May 26, 2026 • Age: 12 hours

現在のステータス

高度 513.5 km
速度 7.61 km/s
衛星直下点 -77.61°S, 116.23°W
打ち上げ日 Feb 5, 2026
運用期間 0.3 years
タイプ other

技術仕様

分類 Payload
質量 500.00 kg
乾燥質量 500.00 kg
総質量 500.00 kg
長さ 3.00 m
直径 1.30 m
スパン 3.00 m
形状 Cyl + 2 Pan
製造者 UNKRU
バスタイプ Unk
フェーズステータス In Orbit
所有者/国 VVKOV/RU

Most Searched